map of CAY home
Great Circle Mapper logo
CAY - Airport
Location
City:  Cayenne, French Guiana
Name:Rochambeau
ICAO / IATA:SOCA / CAY

Details
Type:Airport (Aerodrome, Airfield)
Latitude:449'11"N (4.819722)
Longitude:5221'43"W (-52.361943)
Elevation:26 ft (8 m)
Runways:1
Longest:10499 × 148 ft (3200 × 45 m), paved

Time
Time Zone:UTC-3
Local Time:

Weather
METAR:SOCA 221130Z AUTO VRB03KT 9999 FEW009/// 28/24 Q1013
TAF:SOCA 221100Z 2212/2312 09010KT 9999 SCT025 PROB30
TEMPO 2216/2220 FEW012CB
FM222300 VRB02KT 9999 SCT020 PROB40
TEMPO 2306/2312 SHRA FEW015TCU

Related Locations
Nearby:
Farthest:AMQ: 12350 mi / 19875 km
Ambon [Pattimura], ID

Find:

   beyond  
but within

Other Information
Maps:
NOTAMs:
Links:
Sources:

  
flag of French Guiana   

Sectional Chart

Flight Planning
at skyvector.com

Satellite Image

Google Maps Satellite View

 

Copyright © 2004-2014 Karl L. Swartz. All rights reserved.
The Great Circle Mapper name and logo are trademarks of the Great Circle Mapper.
All other trademarks mentioned herein belong to their respective owners.
Please see credits for attibutions and further copyright information.

  Follow gcmap on Facebook Follow gcmap on Twitter

hCard Microformat

Geo Microformat